Petersburg, AK

3:38 AM AKDT on July 26, 2017 (GMT -0800)
Johnson Petersburg

Weather History for PAPG - December, 2011

Change the Weather History Date:

Sunday, December 18, 2011

  Actual Average Record
Temperature  
Mean Temperature 32 °F -  
Max Temperature 35 °F 34 °F 50 °F (1985)
Min Temperature 28 °F 27 °F 8 °F (1990)
Degree Days  
Heating Degree Days 34    
Moisture  
Dew Point 29 °F    
Average Humidity 90    
Maximum Humidity 100    
Minimum Humidity 75    
Precipitation  
Precipitation 0.00 in - - ()
Sea Level Pressure  
Sea Level Pressure 30.10 in    
Wind  
Wind Speed 3 mph (SE)    
Max Wind Speed 14 mph    
Max Gust Speed 26 mph    
Visibility 4 miles    
Events      
Averages and records for this station are not official NWS values.
T = Trace of Precipitation, MM = Missing Value Source: NWS Daily Summary

Daily Weather History Graph

Daily Weather History Graph

Search for Another Location

Airport or City:

Trip Planner

Search our weather history database for the weather conditions in past years. The results will help you decide how hot, cold, wet, or windy it might be!

Date:

Astronomy

Dec. 18, 2011 Rise Set
Actual Time 8:25 AM AKST 3:11 PM AKST
Civil Twilight 7:36 AM AKST 4:00 PM AKST
Nautical Twilight 6:45 AM AKST 4:51 PM AKST
Astronomical Twilight 5:58 AM AKST 5:37 PM AKST
Moon 12:32 AM AKST (12/18) 11:36 AM AKST (12/18)
Length of Visible Light 8h 24m
Length of Day
6h 46m
Last Quarter, 41% of the Moon is Illuminated
Dec 18
Last Quarter
Dec 24
New
Dec 31
First Quarter
Jan 8
Full
Jan 16
Last Quarter

Hourly Weather History & Observations

Time (AKST) Temp. Windchill Dew Point Humidity Pressure Visibility Wind Dir Wind Speed Gust Speed Precip Events Conditions
12:16 AM 30.2 °F - 28.4 °F 93% 30.20 in 8.0 mi Calm Calm - N/A   Overcast
12:36 AM 30.2 °F - 30.2 °F 100% 30.21 in 3.0 mi Calm Calm - N/A   Overcast
12:56 AM 30.2 °F - 28.4 °F 93% 30.21 in 1.5 mi Calm Calm - N/A   Overcast
1:16 AM 30.2 °F - 28.4 °F 93% 30.22 in 1.2 mi Calm Calm - N/A   Overcast
1:36 AM 30.2 °F 26.7 °F 28.4 °F 93% 30.21 in 1.2 mi SSW 3.5 mph - N/A   Overcast
1:56 AM 30.2 °F 25.4 °F 28.4 °F 93% 30.22 in 3.0 mi South 4.6 mph - N/A   Overcast
2:16 AM 30.2 °F - 28.4 °F 93% 30.22 in 7.0 mi Calm Calm - N/A   Overcast
2:36 AM 30.2 °F - 28.4 °F 93% 30.23 in 9.0 mi Calm Calm - N/A   Overcast
2:56 AM 30.2 °F - 28.4 °F 93% 30.23 in 2.5 mi Calm Calm - N/A   Overcast
3:36 AM 28.4 °F - 28.4 °F 100% 30.24 in 1.2 mi Calm Calm - N/A   Overcast
3:56 AM 28.4 °F - 28.4 °F 100% 30.24 in 0.5 mi Calm Calm - N/A   Overcast
4:16 AM 28.4 °F - 26.6 °F 93% 30.24 in 0.5 mi Calm Calm - N/A   Overcast
4:36 AM 28.4 °F - 28.4 °F 100% 30.23 in 0.5 mi Calm Calm - N/A   Overcast
4:56 AM 28.4 °F - 26.6 °F 93% 30.24 in 0.5 mi Calm Calm - N/A   Overcast
5:16 AM 28.4 °F - 26.6 °F 93% 30.23 in 0.5 mi Calm Calm - N/A   Overcast
5:36 AM 28.4 °F - 26.6 °F 93% 30.22 in 0.5 mi Calm Calm - N/A   Overcast
5:56 AM 28.4 °F 24.6 °F 28.4 °F 100% 30.22 in 0.8 mi South 3.5 mph - N/A   Overcast
6:16 AM 28.4 °F 22.2 °F 28.4 °F 100% 30.22 in 2.0 mi WSW 5.8 mph - N/A   Mostly Cloudy
6:36 AM 30.2 °F 25.4 °F 28.4 °F 93% 30.22 in 2.0 mi WSW 4.6 mph - N/A   Mostly Cloudy
6:56 AM 30.2 °F 26.7 °F 28.4 °F 93% 30.20 in 2.5 mi SW 3.5 mph - N/A   Mostly Cloudy
7:16 AM 30.2 °F 25.4 °F 28.4 °F 93% 30.21 in 2.5 mi WSW 4.6 mph - N/A   Mostly Cloudy
7:36 AM 30.2 °F 26.7 °F 28.4 °F 93% 30.21 in 10.0 mi West 3.5 mph - N/A   Mostly Cloudy
7:56 AM 30.2 °F - 30.2 °F 100% 30.20 in 10.0 mi Calm Calm - N/A   Mostly Cloudy
8:16 AM 30.2 °F 25.4 °F 28.4 °F 93% 30.21 in 10.0 mi West 4.6 mph - N/A   Mostly Cloudy
8:36 AM 30.2 °F - 30.2 °F 100% 30.20 in 10.0 mi Calm Calm - N/A   Mostly Cloudy
8:56 AM 30.2 °F - 28.4 °F 93% 30.20 in 10.0 mi Calm Calm - N/A   Overcast
9:16 AM 30.2 °F 25.4 °F 28.4 °F 93% 30.19 in 7.0 mi WSW 4.6 mph - N/A   Overcast
9:36 AM 30.2 °F - 28.4 °F 93% 30.19 in 7.0 mi Calm Calm - N/A   Overcast
9:56 AM 32.0 °F - 30.2 °F 93% 30.19 in 10.0 mi Calm Calm - N/A   Mostly Cloudy
10:16 AM 32.0 °F 27.5 °F 30.2 °F 93% 30.18 in 10.0 mi WSW 4.6 mph - N/A   Mostly Cloudy
10:36 AM 32.0 °F 28.7 °F 30.2 °F 93% 30.18 in 10.0 mi West 3.5 mph - N/A   Mostly Cloudy
10:56 AM 33.8 °F 30.8 °F 30.2 °F 87% 30.17 in 10.0 mi West 3.5 mph - N/A   Overcast
11:16 AM 33.8 °F - 32.0 °F 93% 30.16 in 10.0 mi Calm Calm - N/A   Overcast
11:36 AM 33.8 °F - 30.2 °F 87% 30.14 in 10.0 mi Calm Calm - N/A   Overcast
11:56 AM 33.8 °F - 30.2 °F 87% 30.13 in 4.0 mi Calm Calm - N/A   Overcast
12:16 PM 35.6 °F 29.9 °F 32.0 °F 87% 30.11 in 4.0 mi ESE 6.9 mph - N/A   Overcast
12:36 PM 35.6 °F 26.6 °F 30.2 °F 81% 30.10 in 4.0 mi ESE 13.8 mph 18.4 mph N/A   Overcast
12:56 PM 35.6 °F 28.6 °F 30.2 °F 81% 30.10 in 5.0 mi ESE 9.2 mph 25.3 mph N/A   Mostly Cloudy
1:16 PM 35.6 °F 27.1 °F 28.4 °F 75% 30.08 in 5.0 mi ESE 12.7 mph 26.5 mph N/A   Mostly Cloudy
1:36 PM 35.6 °F 31.7 °F 30.2 °F 81% 30.07 in 5.0 mi SE 4.6 mph - N/A   Mostly Cloudy
1:56 PM 35.6 °F 29.9 °F 30.2 °F 81% 30.05 in 5.0 mi East 6.9 mph 16.1 mph N/A   Overcast
2:16 PM 35.6 °F 29.2 °F 30.2 °F 81% 30.03 in 5.0 mi SE 8.1 mph - N/A   Overcast
2:36 PM 35.6 °F 27.1 °F 30.2 °F 81% 30.01 in 5.0 mi SE 12.7 mph 20.7 mph N/A   Overcast
2:56 PM 35.6 °F 28.6 °F 30.2 °F 81% 30.01 in 2.5 mi East 9.2 mph - N/A   Overcast
3:16 PM 35.6 °F 27.1 °F 30.2 °F 81% 29.99 in 2.5 mi ESE 12.7 mph 18.4 mph N/A   Overcast
3:36 PM 33.8 °F 25.8 °F 30.2 °F 87% 29.98 in 2.5 mi ESE 10.4 mph 16.1 mph N/A   Overcast
3:56 PM 33.8 °F 27.0 °F 30.2 °F 87% 29.96 in 2.5 mi East 8.1 mph 26.5 mph N/A   Overcast
4:16 PM 33.8 °F 24.3 °F 30.2 °F 87% 29.95 in 2.5 mi ESE 13.8 mph - N/A   Overcast
4:36 PM 33.8 °F 27.7 °F 30.2 °F 87% 29.93 in 2.5 mi ESE 6.9 mph - N/A   Overcast
4:56 PM 35.6 °F 30.7 °F 30.2 °F 81% 29.93 in 2.0 mi ESE 5.8 mph - N/A   Overcast
5:16 PM 35.6 °F - 30.2 °F 81% 29.93 in 2.0 mi Calm Calm - N/A   Overcast
5:36 PM 33.8 °F 28.6 °F 30.2 °F 87% 29.91 in 2.0 mi NNW 5.8 mph - N/A   Overcast
5:56 PM 33.8 °F - 30.2 °F 87% 29.90 in 4.0 mi Calm Calm - N/A   Overcast
6:16 PM 33.8 °F - 30.2 °F 87% 29.90 in 4.0 mi Calm Calm - N/A   Overcast
6:36 PM 33.8 °F - 30.2 °F 87% 29.89 in 4.0 mi Calm Calm - N/A   Overcast
6:56 PM 33.8 °F 28.6 °F 30.2 °F 87% 29.90 in 4.0 mi ENE 5.8 mph - N/A   Overcast
7:16 PM 33.8 °F - 30.2 °F 87% 29.89 in 4.0 mi Calm Calm - N/A   Overcast
7:36 PM 33.8 °F 29.6 °F 30.2 °F 87% 29.89 in 4.0 mi East 4.6 mph - N/A   Overcast
7:56 PM 33.8 °F 30.8 °F 30.2 °F 87% 29.90 in 4.0 mi ENE 3.5 mph - N/A   Overcast
8:16 PM 33.8 °F 27.7 °F 32.0 °F 93% 29.88 in 4.0 mi NE 6.9 mph - N/A   Overcast
8:36 PM 33.8 °F 30.8 °F 30.2 °F 87% 29.87 in 4.0 mi NE 3.5 mph - N/A   Overcast
8:56 PM 33.8 °F - 30.2 °F 87% 29.88 in 4.0 mi Calm Calm - N/A   Overcast
9:16 PM 33.8 °F - 30.2 °F 87% 29.87 in 4.0 mi Calm Calm - N/A   Overcast
9:36 PM 33.8 °F 28.6 °F 30.2 °F 87% 29.88 in 4.0 mi SW 5.8 mph - N/A   Overcast
9:56 PM 33.8 °F 30.8 °F 30.2 °F 87% 29.89 in 5.0 mi SW 3.5 mph - N/A   Overcast
10:16 PM 33.8 °F 30.8 °F 30.2 °F 87% 29.90 in 4.0 mi SW 3.5 mph - N/A   Overcast
10:36 PM 33.8 °F 28.6 °F 30.2 °F 87% 29.90 in 7.0 mi WSW 5.8 mph - N/A   Overcast
11:16 PM 33.8 °F 30.8 °F 30.2 °F 87% 29.93 in 5.0 mi South 3.5 mph - N/A   Overcast
11:36 PM 33.8 °F 29.6 °F 32.0 °F 93% 29.91 in 3.0 mi East 4.6 mph - N/A   Overcast
11:56 PM 33.8 °F - 32.0 °F 93% 29.91 in 7.0 mi Calm Calm - N/A   Overcast